When you browse on this site, cookies collect data to enhance your experience and personalize the content and advertising you see.
Visit our Privacy Policy to learn more. By continuing to use the site, you agree to this use of cookies and data.
  • Em Portugal
  • Lista de países
  • Para 7 dias
  • Temperatura da água
  • Mapas de satélite
  • Mapa do tempo
  • Widgets de tempo
  • user-avatar
    Iniciar Sessão

    Previsão horária em Adelaide

    Hoje, 21 Julho, Domingo

    Tempo Temperatura Precipitação Vento Pressão Humidade
    00:00 +12°C° 0.4 mm 8 m/s 753 mmHg 85%
    01:00 +11°C° 0.2 mm 7 m/s 753 mmHg 84%
    02:00 +11°C° 0.2 mm 6 m/s 753 mmHg 83%
    03:00 +11°C° 0 mm 4 m/s 754 mmHg 83%
    04:00 +11°C° 0 mm 4 m/s 754 mmHg 83%
    05:00 +10°C° 0 mm 4 m/s 755 mmHg 82%
    06:00 +10°C° 0 mm 4 m/s 755 mmHg 82%
    07:00 +11°C° 0 mm 4 m/s 755 mmHg 80%
    08:00 +10°C° 0 mm 5 m/s 756 mmHg 78%
    09:00 +12°C° 0 mm 5 m/s 756 mmHg 77%
    10:00 +13°C° 0 mm 5 m/s 756 mmHg 73%
    11:00 +13°C° 0 mm 5 m/s 756 mmHg 70%
    12:00 +14°C° 0 mm 5 m/s 756 mmHg 66%
    13:00 +14°C° 0 mm 5 m/s 756 mmHg 67%
    14:00 +14°C° 0 mm 5 m/s 756 mmHg 68%
    15:00 +14°C° 0 mm 4 m/s 755 mmHg 69%
    16:00 +13°C° 0 mm 4 m/s 756 mmHg 73%
    17:00 +12°C° 0 mm 4 m/s 756 mmHg 77%
    18:00 +11°C° 0 mm 3 m/s 756 mmHg 80%
    19:00 +11°C° 0 mm 4 m/s 756 mmHg 80%
    20:00 +11°C° 0 mm 4 m/s 756 mmHg 81%
    21:00 +11°C° 0 mm 4 m/s 756 mmHg 81%
    22:00 +10°C° 0 mm 4 m/s 756 mmHg 79%
    23:00 +9°C° 0 mm 5 m/s 756 mmHg 78%

    Amanhã, 22 Julho, Segunda-feira

    Tempo Temperatura Precipitação Vento Pressão Humidade
    00:00 +9°C° 0 mm 5 m/s 756 mmHg 77%
    01:00 +9°C° 0 mm 5 m/s 755 mmHg 78%
    02:00 +9°C° 0 mm 5 m/s 755 mmHg 79%
    03:00 +9°C° 0 mm 6 m/s 755 mmHg 80%
    04:00 +9°C° 0 mm 6 m/s 755 mmHg 81%
    05:00 +9°C° 0 mm 6 m/s 754 mmHg 81%
    06:00 +9°C° 0 mm 7 m/s 754 mmHg 81%
    07:00 +10°C° 0 mm 8 m/s 754 mmHg 75%
    08:00 +11°C° 0 mm 8 m/s 754 mmHg 70%
    09:00 +12°C° 0 mm 9 m/s 754 mmHg 64%
    10:00 +12°C° 0 mm 9 m/s 753 mmHg 62%
    11:00 +13°C° 0 mm 10 m/s 753 mmHg 59%
    12:00 +14°C° 0 mm 10 m/s 752 mmHg 57%
    13:00 +14°C° 0 mm 10 m/s 752 mmHg 57%
    14:00 +15°C° 0 mm 9 m/s 752 mmHg 58%
    15:00 +16°C° 0 mm 9 m/s 752 mmHg 59%
    16:00 +15°C° 0.7 mm 8 m/s 752 mmHg 70%
    17:00 +13°C° 0.7 mm 8 m/s 752 mmHg 82%
    18:00 +12°C° 0.7 mm 7 m/s 753 mmHg 93%
    19:00 +11°C° 0.5 mm 7 m/s 753 mmHg 91%
    20:00 +11°C° 0.5 mm 6 m/s 754 mmHg 89%
    21:00 +11°C° 0.5 mm 6 m/s 754 mmHg 87%
    22:00 +11°C° 0.1 mm 6 m/s 755 mmHg 84%
    23:00 +10°C° 0.1 mm 7 m/s 755 mmHg 81%

    Depois de amanhã, 23 Julho, Terça-feira

    Tempo Temperatura Precipitação Vento Pressão Humidade
    00:00 +10°C° 0.1 mm 7 m/s 755 mmHg 79%
    01:00 +10°C° 0.2 mm 8 m/s 755 mmHg 79%
    02:00 +10°C° 0.2 mm 8 m/s 755 mmHg 79%
    03:00 +10°C° 0.2 mm 8 m/s 755 mmHg 79%
    04:00 +10°C° 0.2 mm 8 m/s 756 mmHg 78%
    05:00 +10°C° 0.2 mm 8 m/s 756 mmHg 77%
    06:00 +10°C° 0.2 mm 7 m/s 757 mmHg 76%
    07:00 +10°C° 0.1 mm 8 m/s 757 mmHg 74%
    08:00 +10°C° 0.1 mm 8 m/s 757 mmHg 73%
    09:00 +11°C° 0.1 mm 8 m/s 758 mmHg 71%
    10:00 +11°C° 0 mm 9 m/s 758 mmHg 70%
    11:00 +11°C° 0 mm 9 m/s 758 mmHg 69%
    12:00 +12°C° 0 mm 10 m/s 758 mmHg 68%
    13:00 +12°C° 0 mm 10 m/s 757 mmHg 70%
    14:00 +12°C° 0 mm 10 m/s 757 mmHg 71%
    15:00 +12°C° 0 mm 10 m/s 757 mmHg 73%
    16:00 +11°C° 0.6 mm 9 m/s 758 mmHg 78%
    17:00 +11°C° 0.6 mm 8 m/s 758 mmHg 83%
    18:00 +11°C° 0.6 mm 7 m/s 759 mmHg 88%
    19:00 +10°C° 0 mm 6 m/s 760 mmHg 86%
    20:00 +10°C° 0 mm 5 m/s 760 mmHg 85%
    21:00 +11°C° 0 mm 4 m/s 761 mmHg 83%
    22:00 +11°C° 0 mm 4 m/s 761 mmHg 84%
    23:00 +11°C° 0 mm 3 m/s 762 mmHg 85%

    24 Julho, Quarta-feira

    Tempo Temperatura Precipitação Vento Pressão Humidade
    00:00 +11°C° 0 mm 3 m/s 762 mmHg 85%
    01:00 +10°C° 0 mm 3 m/s 762 mmHg 85%
    02:00 +10°C° 0 mm 3 m/s 762 mmHg 86%
    03:00 +10°C° 0 mm 3 m/s 762 mmHg 86%
    04:00 +10°C° 0 mm 2 m/s 763 mmHg 86%
    05:00 +9°C° 0 mm 2 m/s 763 mmHg 86%
    06:00 +10°C° 0 mm 1 m/s 764 mmHg 86%
    07:00 +11°C° 0 mm 1 m/s 764 mmHg 84%
    08:00 +12°C° 0 mm 2 m/s 765 mmHg 82%
    09:00 +13°C° 0 mm 2 m/s 765 mmHg 80%
    10:00 +13°C° 0 mm 2 m/s 765 mmHg 76%
    11:00 +13°C° 0 mm 3 m/s 765 mmHg 72%
    12:00 +13°C° 0 mm 3 m/s 765 mmHg 68%
    13:00 +13°C° 0 mm 3 m/s 765 mmHg 67%
    14:00 +14°C° 0 mm 2 m/s 764 mmHg 67%
    15:00 +14°C° 0 mm 2 m/s 764 mmHg 66%
    16:00 +13°C° 0 mm 1 m/s 764 mmHg 70%
    17:00 +12°C° 0 mm 1 m/s 764 mmHg 74%
    18:00 +12°C° 0 mm 1 m/s 764 mmHg 78%
    19:00 +11°C° 0 mm 1 m/s 765 mmHg 78%
    20:00 +11°C° 0 mm 1 m/s 765 mmHg 79%
    21:00 +10°C° 0 mm 2 m/s 765 mmHg 80%
    22:00 +10°C° 0 mm 2 m/s 765 mmHg 81%
    23:00 +10°C° 0 mm 2 m/s 765 mmHg 82%

    25 Julho, Quinta-feira

    Tempo Temperatura Precipitação Vento Pressão Humidade
    00:00 +10°C° 0 mm 3 m/s 764 mmHg 83%
    01:00 +10°C° 0 mm 2 m/s 764 mmHg 82%
    02:00 +10°C° 0 mm 2 m/s 764 mmHg 81%
    03:00 +10°C° 0 mm 2 m/s 764 mmHg 80%
    04:00 +10°C° 0 mm 2 m/s 764 mmHg 80%
    05:00 +10°C° 0 mm 2 m/s 764 mmHg 80%
    06:00 +10°C° 0 mm 3 m/s 764 mmHg 80%
    07:00 +11°C° 0 mm 3 m/s 764 mmHg 79%
    08:00 +12°C° 0 mm 3 m/s 764 mmHg 78%
    09:00 +12°C° 0 mm 3 m/s 764 mmHg 77%
    10:00 +13°C° 0 mm 3 m/s 763 mmHg 74%
    11:00 +14°C° 0 mm 3 m/s 763 mmHg 71%
    12:00 +15°C° 0 mm 4 m/s 762 mmHg 69%
    13:00 +15°C° 0 mm 4 m/s 762 mmHg 67%
    14:00 +15°C° 0 mm 4 m/s 762 mmHg 66%
    15:00 +17°C° 0 mm 4 m/s 761 mmHg 64%
    16:00 +16°C° 0 mm 3 m/s 761 mmHg 69%
    17:00 +14°C° 0 mm 3 m/s 761 mmHg 74%
    18:00 +14°C° 0 mm 2 m/s 762 mmHg 78%
    19:00 +12°C° 0 mm 3 m/s 762 mmHg 78%
    20:00 +12°C° 0 mm 3 m/s 762 mmHg 78%
    21:00 +12°C° 0 mm 3 m/s 761 mmHg 77%
    22:00 +12°C° 0 mm 4 m/s 761 mmHg 75%
    23:00 +12°C° 0 mm 4 m/s 761 mmHg 73%

    26 Julho, Sexta-feira

    Tempo Temperatura Precipitação Vento Pressão Humidade
    00:00 +12°C° 0 mm 4 m/s 761 mmHg 70%
    01:00 +12°C° 0 mm 3 m/s 760 mmHg 70%
    02:00 +12°C° 0 mm 3 m/s 760 mmHg 70%
    03:00 +12°C° 0 mm 3 m/s 760 mmHg 70%
    04:00 +12°C° 0.2 mm 3 m/s 760 mmHg 74%
    05:00 +12°C° 0.2 mm 3 m/s 760 mmHg 78%
    06:00 +12°C° 0.2 mm 3 m/s 760 mmHg 82%
    07:00 +12°C° 0 mm 3 m/s 761 mmHg 81%
    08:00 +12°C° 0 mm 3 m/s 761 mmHg 80%
    09:00 +13°C° 0 mm 3 m/s 761 mmHg 79%
    10:00 +13°C° 0 mm 3 m/s 761 mmHg 80%
    11:00 +13°C° 0 mm 4 m/s 761 mmHg 81%
    12:00 +13°C° 0 mm 4 m/s 761 mmHg 82%
    13:00 +14°C° 0.1 mm 4 m/s 761 mmHg 78%
    14:00 +14°C° 0.1 mm 4 m/s 761 mmHg 75%
    15:00 +14°C° 0.1 mm 4 m/s 761 mmHg 71%
    16:00 +13°C° 0 mm 4 m/s 761 mmHg 76%
    17:00 +11°C° 0 mm 3 m/s 762 mmHg 82%
    18:00 +10°C° 0 mm 3 m/s 763 mmHg 87%
    19:00 +10°C° 0 mm 3 m/s 763 mmHg 87%
    20:00 +9°C° 0 mm 3 m/s 763 mmHg 88%
    21:00 +9°C° 0 mm 3 m/s 764 mmHg 88%
    22:00 +9°C° 0 mm 3 m/s 764 mmHg 88%
    23:00 +8°C° 0 mm 3 m/s 764 mmHg 88%
    Mostrar mais